#timestamp,LO_Frequency,Hit,StdDev 
1510516815.9,286046988.6,Y
1510516835.7,286046995.2,P
1510516855.6,286047000.4,N
1510516875.4,286046999.0,N
1510516895.2,286046998.7,N
1510516915.1,286046999.1,N
1510516916.0,286046999.1,N
1510516935.8,286047000.3,N
1510516955.6,286047002.2,N
1510516975.4,286046999.0,N
1510516995.3,286046997.2,N
1510517015.1,286046999.0,N
1510517035.8,286046993.4,N
1510517055.7,286046992.2,N
1510517075.5,286046996.9,N
1510517095.3,286046997.0,N
1510517115.2,286046998.1,N
1510517135.9,286046998.6,N
1510517155.7,286046998.5,N
1510517175.6,286046998.2,N
1510517195.4,286047002.5,N
1510517215.2,286047003.6,N
1510517235.0,286046998.1,N
1510517236.0,286046998.1,N
1510517255.8,286047002.1,N
1510517275.6,286047003.0,N
1510517295.4,286047001.9,N
1510517315.3,286047002.0,N
1510517335.1,286047001.5,N
1510517355.8,286047004.4,N
1510517375.7,286047007.4,N
1510517395.5,286047006.3,N
1510517415.3,286047006.5,N
1510517435.2,286047005.7,N
1510517455.9,286047004.7,N
1510517475.7,286047008.9,N
1510517495.6,286047005.1,N
1510517515.4,286047004.6,N
1510517535.2,286047006.7,N
1510517555.0,286047003.8,N
1510517556.0,286047003.8,N
1510517575.8,286047007.5,N
1510517595.6,286047005.8,N
1510517615.4,286047004.2,N
1510517635.3,286047004.5,N
1510517655.1,286047007.5,N
1510517675.8,286047007.0,N
1510517695.7,286047005.3,N
1510517715.5,286047005.3,N
1510517735.3,286047001.8,N
1510517755.2,286047003.0,N
1510517775.9,286047003.6,N
1510517795.7,286047005.7,N
1510517815.6,286047003.3,N
1510517835.4,286047006.1,Y
1510517855.2,286047004.4,P
1510517875.1,286047002.2,P
1510517876.0,286047002.2,N
1510517895.8,286047003.8,Y
1510517915.6,286046996.8,P
1510517935.5,286046994.1,N
1510517955.3,286046996.9,N
1510517975.1,286046998.1,N
1510517995.9,286046999.5,N
1510518015.7,286046997.3,N
1510518035.5,286046996.8,N
1510518055.4,286046998.7,N
1510518075.2,286046998.3,N
1510518095.0,286046998.9,N
1510518095.9,286046998.9,N
1510518115.8,286046999.3,N
1510518135.6,286046999.4,N
1510518155.4,286046996.5,N
1510518175.3,286046999.2,N
1510518195.1,286047000.0,N
1510518196.0,286047000.0,N
1510518215.8,286046999.7,N
1510518235.7,286046999.8,N
1510518255.5,286046999.8,N
1510518275.3,286047002.5,N
1510518295.2,286046999.7,N
1510518315.9,286046998.8,N
1510518335.7,286046999.2,N
1510518355.5,286047002.2,N
1510518375.4,286046998.1,N
1510518395.2,286046993.9,Y
1510518415.0,286046993.5,P
1510518416.0,286046993.5,N
1510518435.8,286046992.6,N
1510518455.6,286046990.4,Y
1510518475.5,286046994.8,P
1510518495.3,286046993.4,P
1510518515.1,286046994.1,P
1510518535.9,286046996.1,Y
1510518555.7,286046996.7,P
1510518575.5,286046997.2,N
1510518595.3,286046993.4,P
1510518615.2,286046996.3,N
1510518635.0,286046993.5,Y
1510518635.9,286046993.5,P
1510518655.8,286047000.7,N
1510518675.6,286047000.2,N
1510518695.4,286047002.6,N
1510518715.2,286047000.3,N
1510518735.1,286046997.0,N
1510518736.0,286046997.0,N
1510518755.8,286046997.0,N
1510518775.6,286046994.6,N
1510518795.5,286046992.2,N
1510518815.3,286046994.6,N
1510518835.1,286046989.0,Y
1510518855.9,286046992.3,P
1510518875.7,286046994.6,N
1510518895.5,286046990.8,P
1510518915.4,286046989.0,Y
1510518935.2,286046995.5,P
1510518955.0,286046993.7,P
1510518955.9,286046993.7,P
1510518975.8,286046994.3,Y
1510518995.6,286046998.7,P
1510519015.4,286046998.7,N
1510519035.3,286046996.5,N
1510519055.1,286046998.4,N
1510519075.8,286046996.8,N
1510519095.7,286046998.3,N
1510519115.5,286046999.1,N
1510519135.3,286046997.5,N
1510519155.2,286046997.1,N
1510519175.9,286046996.7,N
1510519195.7,286046999.1,N
1510519215.6,286047000.8,N
1510519235.4,286047001.0,N
1510519255.2,286047002.0,N
1510519275.0,286047002.1,N
1510519276.0,286047002.1,N
1510519295.8,286047003.6,N
1510519315.6,286047003.4,N
1510519335.4,286047003.8,N
1510519355.3,286047006.1,N
1510519375.1,286047007.8,N
1510519395.8,286047009.8,N
1510519415.7,286047015.6,Y
1510519435.5,286047021.2,P
1510519455.3,286047019.3,N
1510519475.2,286047020.9,N
1510519495.9,286047022.3,N
1510519515.7,286047024.9,Y
1510519535.6,286047004.6,P
1510519555.4,286047007.2,N
1510519575.2,286047006.8,N
1510519595.1,286047010.4,N
1510519596.0,286047010.4,N
1510519615.8,286047013.9,Y
1510519635.6,286047005.1,P
1510519655.5,286047007.5,P
1510519675.3,286047006.1,P
1510519695.1,286047007.5,Y
1510519715.9,286046998.6,P
1510519735.7,286047000.9,N
1510519755.5,286047007.5,N
1510519775.4,286047006.7,N
1510519795.2,286047006.8,N
1510519815.0,286047004.2,N
1510519815.9,286047004.2,N
1510519835.8,286047006.7,N
1510519855.6,286047008.3,N
1510519875.4,286047005.3,N
1510519895.2,286047007.0,N
1510519915.1,286047007.6,N
1510519916.0,286047007.6,N
1510519935.8,286047003.7,N
1510519955.6,286047006.8,N
1510519975.5,286047009.7,Y
1510519995.3,286047004.8,P
1510520015.1,286047005.7,P
1510520035.9,286047001.9,P
1510520055.7,286047004.1,N
1510520075.5,286047005.9,Y
1510520095.4,286046999.1,P
1510520115.2,286046998.5,N
1510520135.0,286046997.0,N
1510520135.9,286046997.0,N
1510520155.8,286046996.1,N
1510520175.6,286046993.3,N
1510520195.4,286046999.1,N
1510520215.3,286046999.6,N
1510520235.1,286047002.0,N
1510520236.0,286047002.0,N
1510520255.8,286046995.3,N
1510520275.7,286046992.4,N
1510520295.5,286046987.3,Y
1510520315.3,286046989.5,P
1510520335.2,286046985.5,P
1510520355.9,286046983.6,P
1510520375.7,286046982.4,Y
1510520395.6,286046992.7,P
